| time (UTC) | temp F | wind direction | speed MPH | gust MPH | rain 1hr in | rain 24hr in | rain mn in | humidity % | barometer mb |
| 20260506091242 | 17 | 16 | 0.0 | 0.0 | 0.00 | 0.00 | 0.00 | 70 | |
| 20260506090742 | 16 | 16 | 0.0 | 0.0 | 0.00 | 0.00 | 0.00 | 70 | |
| 20260506090242 | 16 | 16 | 0.0 | 0.0 | 0.00 | 0.00 | 0.00 | 69 | |
| 20260506090023 | 59 | 39 | 0.0 | 2.0 | 0.00 | 0.00 | 0.00 | 77 | 1005.9 |
| 20260506085932 | 15 | 16 | 0.0 | 0.0 | 0.00 | 0.00 | 0.00 | 69 | |
| 20260506085742 | 15 | 16 | 0.0 | 0.0 | 0.00 | 0.00 | 0.00 | 69 | |
| 20260506085242 | 16 | 16 | 0.0 | 0.0 | 0.00 | 0.00 | 0.00 | 69 | |
| 20260506084742 | 16 | 16 | 0.0 | 0.0 | 0.00 | 0.00 | 0.00 | 69 | |
| 20260506084520 | 60 | 36 | 2.0 | 9.0 | 0.00 | 0.00 | 0.00 | 76 | 1005.8 |
| 20260506084242 | 15 | 16 | 0.0 | 0.0 | 0.00 | 0.00 | 0.00 | 69 | |
| 20260506083742 | 16 | 16 | 0.0 | 0.0 | 0.00 | 0.00 | 0.00 | 68 | |
| 20260506083242 | 19 | 16 | 0.0 | 0.0 | 0.00 | 0.00 | 0.00 | 68 | |
| 20260506083015 | 61 | 32 | 2.0 | 6.0 | 0.00 | 0.00 | 0.00 | 75 | 1006.0 |
| 20260506082742 | 18 | 16 | 0.0 | 0.0 | 0.00 | 0.00 | 0.00 | 68 | |
| 20260506082242 | 19 | 16 | 0.0 | 0.0 | 0.00 | 0.00 | 0.00 | 67 | |
| 20260506081742 | 15 | 16 | 0.0 | 0.0 | 0.00 | 0.00 | 0.00 | 68 | |
| 20260506081513 | 61 | 30 | 2.0 | 7.0 | 0.00 | 0.00 | 0.00 | 74 | 1005.9 |
| 20260506081242 | 12 | 16 | 0.0 | 0.0 | 0.00 | 0.00 | 0.00 | 67 | |
| 20260506080742 | 10 | 16 | 0.0 | 0.0 | 0.00 | 0.00 | 0.00 | 67 | |
| 20260506080242 | 18 | 16 | 0.0 | 0.0 | 0.00 | 0.00 | 0.00 | 66 | |
| 20260506073242 | 16 | 16 | 0.0 | 0.0 | 0.00 | 0.00 | 0.00 | 64 | |
| 20260506073004 | 64 | 24 | 1.0 | 9.0 | 0.00 | 0.00 | 0.00 | 73 | 1005.8 |
| 20260506072742 | 16 | 16 | 0.0 | 0.0 | 0.00 | 0.00 | 0.00 | 64 | |
| 20260506072242 | 11 | 16 | 0.0 | 0.0 | 0.00 | 0.00 | 0.00 | 64 | |
| 20260506071742 | 13 | 16 | 0.0 | 0.0 | 0.00 | 0.00 | 0.00 | 63 | |
| 20260506071502 | 64 | 49 | 1.0 | 7.0 | 0.00 | 0.00 | 0.00 | 72 | 1005.9 |
| 20260506071242 | 12 | 16 | 0.0 | 0.0 | 0.00 | 0.00 | 0.00 | 62 | |
| 20260506070742 | 8 | 16 | 0.0 | 0.0 | 0.00 | 0.00 | 0.00 | 62 | |
| 20260506070243 | 9 | 16 | 0.0 | 0.0 | 0.00 | 0.00 | 0.00 | 62 | |
| 20260506070105 | 65 | 34 | 0.0 | 3.0 | 0.00 | 0.00 | 0.00 | 72 | 1005.9 |
| 20260506062242 | 6 | 16 | 0.0 | 0.0 | 0.00 | 0.00 | 0.00 | 57 | |
| 20260506061742 | 16 | 16 | 0.0 | 0.0 | 0.00 | 0.00 | 0.00 | 57 | |
| 20260506061550 | 67 | 30 | 0.0 | 2.0 | 0.00 | 0.00 | 0.00 | 67 | 1004.9 |
| 20260506061243 | 9 | 16 | 0.0 | 0.0 | 0.00 | 0.00 | 0.00 | 56 | |
| 20260506060743 | 12 | 16 | 0.0 | 0.0 | 0.00 | 0.00 | 0.00 | 56 | |
| 20260506060243 | 10 | 16 | 0.0 | 0.0 | 0.00 | 0.00 | 0.00 | 55 | |
| 20260506051243 | 5 | 16 | 0.0 | 0.0 | 0.00 | 0.00 | 0.00 | 47 | |
| 20260506050743 | 4 | 16 | 0.0 | 0.0 | 0.00 | 0.00 | 0.00 | 46 | |
| 20260506050243 | 3 | 16 | 0.0 | 0.0 | 0.00 | 0.00 | 0.00 | 45 | |
| 20260506044743 | 1 | 16 | 0.0 | 0.0 | 0.00 | 0.00 | 0.00 | 42 | |
| 20260506044531 | 71 | 49 | 0.0 | 2.0 | 0.00 | 0.00 | 0.00 | 48 | 1004.5 |
| 20260506044428 | 0 | 16 | 0.0 | 0.0 | 0.00 | 0.00 | 0.00 | 41 | |
| 20260506044243 | 0 | 16 | 0.0 | 0.0 | 0.00 | 0.00 | 0.00 | 41 | |
| 20260506043743 | 4 | 16 | 0.0 | 0.0 | 0.00 | 0.00 | 0.00 | 41 | |
| 20260506043243 | 1 | 16 | 0.0 | 0.0 | 0.00 | 0.00 | 0.00 | 40 | |
| 20260506043030 | 71 | 56 | 0.0 | 0.0 | 0.00 | 0.00 | 0.00 | 47 | 1004.4 |
| 20260506042743 | 5 | 16 | 0.0 | 0.0 | 0.00 | 0.00 | 0.00 | 40 | |
| 20260506042641 | 4 | 16 | 0.0 | 0.0 | 0.00 | 0.00 | 0.00 | 40 | |
| 20260506042243 | 4 | 16 | 0.0 | 0.0 | 0.00 | 0.00 | 0.00 | 40 | |
| 20260506041743 | 0 | 16 | 0.0 | 0.0 | 0.00 | 0.00 | 0.00 | 39 | |
| 20260506041529 | 72 | 308 | 0.0 | 0.0 | 0.00 | 0.00 | 0.00 | 47 | 1004.4 |
| 20260506041243 | 17 | 16 | 0.0 | 0.0 | 0.00 | 0.00 | 0.00 | 38 | |
| 20260506040743 | 17 | 16 | 0.0 | 0.0 | 0.00 | 0.00 | 0.00 | 38 | |
| 20260506040243 | 18 | 16 | 0.0 | 0.0 | 0.00 | 0.00 | 0.00 | 37 | |
| 20260506040029 | 73 | 308 | 0.0 | 0.0 | 0.00 | 0.00 | 0.00 | 42 | 1004.1 |
| 20260506035743 | 18 | 16 | 0.0 | 0.0 | 0.00 | 0.00 | 0.00 | 36 | |
| 20260506035243 | 15 | 16 | 0.0 | 0.0 | 0.00 | 0.00 | 0.00 | 36 | |
| 20260506034743 | 6 | 16 | 0.0 | 0.0 | 0.00 | 0.00 | 0.00 | 35 | |
| 20260506034530 | 74 | 308 | 0.0 | 0.0 | 0.00 | 0.00 | 0.00 | 40 | 1004.0 |
| 20260506034243 | 5 | 16 | 0.0 | 0.0 | 0.00 | 0.00 | 0.00 | 35 | |
| 20260506033743 | 4 | 16 | 0.0 | 0.0 | 0.00 | 0.00 | 0.00 | 34 | |
| 20260506033243 | 3 | 16 | 0.0 | 0.0 | 0.00 | 0.00 | 0.00 | 34 | |
| 20260506033027 | 75 | 308 | 0.0 | 0.0 | 0.00 | 0.00 | 0.00 | 39 | 1004.1 |
| 20260506032743 | 0 | 16 | 0.0 | 0.0 | 0.00 | 0.00 | 0.00 | 33 | |
| 20260506032243 | 75 | 16 | 0.0 | 0.0 | 0.00 | 0.00 | 0.00 | 33 | |
| 20260506031743 | 74 | 16 | 0.0 | 0.0 | 0.00 | 0.00 | 0.00 | 32 | |
| 20260506031527 | 76 | 308 | 0.0 | 0.0 | 0.00 | 0.00 | 0.00 | 37 | 1004.0 |
| 20260506031243 | 74 | 16 | 0.0 | 0.0 | 0.00 | 0.00 | 0.00 | 31 | |
| 20260506030743 | 76 | 16 | 0.0 | 0.0 | 0.00 | 0.00 | 0.00 | 31 | |
| 20260506030243 | 76 | 16 | 0.0 | 0.0 | 0.00 | 0.00 | 0.00 | 30 | |
| 20260506030036 | 77 | 308 | 0.0 | 0.0 | 0.00 | 0.00 | 0.00 | 35 | 1003.7 |
| 20260506025743 | 75 | 16 | 0.0 | 0.0 | 0.00 | 0.00 | 0.00 | 29 | |
| 20260506025243 | 77 | 16 | 0.0 | 0.0 | 0.00 | 0.00 | 0.00 | 29 | |
| 20260506024743 | 77 | 16 | 0.0 | 0.0 | 0.00 | 0.00 | 0.00 | 28 | |
| 20260506024549 | 78 | 308 | 0.0 | 0.0 | 0.00 | 0.00 | 0.00 | 32 | 1003.7 |
| 20260506024243 | 76 | 16 | 0.0 | 0.0 | 0.00 | 0.00 | 0.00 | 28 | |
| 20260506023743 | 77 | 16 | 0.0 | 0.0 | 0.00 | 0.00 | 0.00 | 28 | |
| 20260506023243 | 77 | 16 | 0.0 | 0.0 | 0.00 | 0.00 | 0.00 | 27 | |
| 20260506023023 | 79 | 308 | 0.0 | 0.0 | 0.00 | 0.00 | 0.00 | 31 | 1003.4 |
| 20260506022743 | 78 | 16 | 0.0 | 0.0 | 0.00 | 0.00 | 0.00 | 26 | |
| 20260506022243 | 78 | 16 | 0.0 | 0.0 | 0.00 | 0.00 | 0.00 | 26 | |
| 20260506021743 | 0 | 16 | 0.0 | 0.0 | 0.00 | 0.00 | 0.00 | 26 | |
| 20260506021524 | 80 | 308 | 0.0 | 0.0 | 0.00 | 0.00 | 0.00 | 29 | 1003.3 |
| 20260506021448 | 1 | 16 | 0.0 | 0.0 | 0.00 | 0.00 | 0.00 | 25 | |
| 20260506021243 | 1 | 16 | 0.0 | 0.0 | 0.00 | 0.00 | 0.00 | 25 | |
| 20260506020913 | 79 | 16 | 0.0 | 0.0 | 0.00 | 0.00 | 0.00 | 25 | |
| 20260506020743 | 79 | 16 | 0.0 | 0.0 | 0.00 | 0.00 | 0.00 | 25 | |
| 20260506020243 | 80 | 16 | 0.0 | 0.0 | 0.00 | 0.00 | 0.00 | 25 | |
| 20260506020023 | 81 | 326 | 0.0 | 3.0 | 0.00 | 0.00 | 0.00 | 27 | 1003.0 |
| 20260506015743 | 80 | 16 | 0.0 | 0.0 | 0.00 | 0.00 | 0.00 | 24 | |
| 20260506015243 | 80 | 16 | 0.0 | 0.0 | 0.00 | 0.00 | 0.00 | 24 | |
| 20260506014743 | 79 | 16 | 0.0 | 0.0 | 0.00 | 0.00 | 0.00 | 24 | |
| 20260506014522 | 82 | 313 | 0.0 | 2.0 | 0.00 | 0.00 | 0.00 | 26 | 1002.9 |
| 20260506014243 | 81 | 16 | 0.0 | 0.0 | 0.00 | 0.00 | 0.00 | 24 | |
| 20260506013743 | 81 | 16 | 0.0 | 0.0 | 0.00 | 0.00 | 0.00 | 24 | |
| 20260506013243 | 82 | 16 | 0.0 | 0.0 | 0.00 | 0.00 | 0.00 | 24 | |
| 20260506013034 | 84 | 290 | 0.0 | 2.0 | 0.00 | 0.00 | 0.00 | 25 | 1002.8 |
| 20260506012743 | 82 | 16 | 0.0 | 0.0 | 0.00 | 0.00 | 0.00 | 24 | |
| 20260506012243 | 82 | 16 | 0.0 | 0.0 | 0.00 | 0.00 | 0.00 | 24 | |
| 20260506011743 | 82 | 16 | 0.0 | 0.0 | 0.00 | 0.00 | 0.00 | 24 | |
| 20260506011521 | 85 | 328 | 1.0 | 7.0 | 0.00 | 0.00 | 0.00 | 25 | 1002.4 |
| 20260506011243 | 82 | 16 | 0.0 | 0.0 | 0.00 | 0.00 | 0.00 | 24 | |
| 20260506010743 | 83 | 16 | 0.0 | 0.0 | 0.00 | 0.00 | 0.00 | 25 | |
| 20260506010243 | 83 | 16 | 0.0 | 0.0 | 0.00 | 0.00 | 0.00 | 26 | |
| 20260506010025 | 85 | 325 | 1.0 | 5.0 | 0.00 | 0.00 | 0.00 | 27 | 1002.4 |
| 20260506005743 | 83 | 16 | 0.0 | 0.0 | 0.00 | 0.00 | 0.00 | 26 | |
| 20260506005243 | 85 | 16 | 0.0 | 0.0 | 0.00 | 0.00 | 0.00 | 27 | |
| 20260506004743 | 83 | 16 | 0.0 | 0.0 | 0.00 | 0.00 | 0.00 | 27 | |
| 20260506004520 | 86 | 193 | 0.0 | 1.0 | 0.00 | 0.00 | 0.00 | 31 | 1002.0 |
| 20260506004243 | 84 | 16 | 0.0 | 0.0 | 0.00 | 0.00 | 0.00 | 27 | |
| 20260506003743 | 83 | 16 | 0.0 | 0.0 | 0.00 | 0.00 | 0.00 | 26 | |
| 20260506003244 | 85 | 16 | 0.0 | 0.0 | 0.00 | 0.00 | 0.00 | 27 | |
| 20260506003020 | 87 | 191 | 0.0 | 0.0 | 0.00 | 0.00 | 0.00 | 30 | 1001.8 |
| 20260506002744 | 84 | 16 | 0.0 | 0.0 | 0.00 | 0.00 | 0.00 | 27 | |
| 20260506002244 | 84 | 16 | 0.0 | 0.0 | 0.00 | 0.00 | 0.00 | 26 | |
| 20260506001744 | 83 | 16 | 0.0 | 0.0 | 0.00 | 0.00 | 0.00 | 25 | |
| 20260506001522 | 87 | 191 | 0.0 | 2.0 | 0.00 | 0.00 | 0.00 | 29 | 1001.6 |
| 20260506001244 | 85 | 16 | 0.0 | 0.0 | 0.00 | 0.00 | 0.00 | 24 | |
| 20260506000744 | 86 | 16 | 0.0 | 0.0 | 0.00 | 0.00 | 0.00 | 24 | |
| 20260506000244 | 86 | 16 | 0.0 | 0.0 | 0.00 | 0.00 | 0.00 | 23 | |
| 20260506000019 | 87 | 190 | 0.0 | 2.0 | 0.00 | 0.00 | 0.00 | 26 | 1001.6 |
| 20260505235744 | 85 | 16 | 0.0 | 0.0 | 0.00 | 0.00 | 0.00 | 23 | |
| 20260505235244 | 85 | 16 | 0.0 | 0.0 | 0.00 | 0.00 | 0.00 | 23 | |
| 20260505234744 | 86 | 16 | 0.0 | 0.0 | 0.00 | 0.00 | 0.00 | 23 | |
| 20260505234519 | 89 | 192 | 0.0 | 4.0 | 0.00 | 0.00 | 0.00 | 26 | 1001.5 |
| 20260505234244 | 87 | 16 | 0.0 | 0.0 | 0.00 | 0.00 | 0.00 | 22 | |
| 20260505233744 | 85 | 16 | 0.0 | 0.0 | 0.00 | 0.00 | 0.00 | 22 | |
| 20260505233244 | 87 | 16 | 0.0 | 0.0 | 0.00 | 0.00 | 0.00 | 22 | |
| 20260505233116 | 89 | 175 | 0.0 | 2.0 | 0.00 | 0.00 | 0.00 | 24 | 1001.6 |
| 20260505232744 | 86 | 16 | 0.0 | 0.0 | 0.00 | 0.00 | 0.00 | 21 | |
| 20260505232244 | 87 | 16 | 0.0 | 0.0 | 0.00 | 0.00 | 0.00 | 21 | |
| 20260505231744 | 88 | 16 | 0.0 | 0.0 | 0.00 | 0.00 | 0.00 | 21 | |
| 20260505231516 | 90 | 203 | 1.0 | 6.0 | 0.00 | 0.00 | 0.00 | 23 | 1001.6 |
| 20260505231244 | 89 | 16 | 0.0 | 0.0 | 0.00 | 0.00 | 0.00 | 20 | |
| 20260505230744 | 88 | 16 | 0.0 | 0.0 | 0.00 | 0.00 | 0.00 | 21 | |
| 20260505230244 | 88 | 16 | 0.0 | 0.0 | 0.00 | 0.00 | 0.00 | 20 | |
| 20260505230034 | 91 | 277 | 1.0 | 5.0 | 0.00 | 0.00 | 0.00 | 22 | 1001.5 |
| 20260505225744 | 88 | 16 | 0.0 | 0.0 | 0.00 | 0.00 | 0.00 | 21 | |
| 20260505225244 | 88 | 16 | 0.0 | 0.0 | 0.00 | 0.00 | 0.00 | 21 | |
| 20260505224744 | 88 | 16 | 0.0 | 0.0 | 0.00 | 0.00 | 0.00 | 21 | |
| 20260505224515 | 92 | 309 | 1.0 | 7.0 | 0.00 | 0.00 | 0.00 | 23 | 1001.7 |
| 20260505224244 | 87 | 16 | 0.0 | 0.0 | 0.00 | 0.00 | 0.00 | 21 | |
| 20260505223744 | 88 | 16 | 0.0 | 0.0 | 0.00 | 0.00 | 0.00 | 21 | |
| 20260505223244 | 88 | 16 | 0.0 | 0.0 | 0.00 | 0.00 | 0.00 | 21 | |
| 20260505223013 | 92 | 251 | 2.0 | 6.0 | 0.00 | 0.00 | 0.00 | 23 | 1001.7 |
| 20260505222744 | 88 | 16 | 0.0 | 0.0 | 0.00 | 0.00 | 0.00 | 21 | |
| 20260505222244 | 89 | 16 | 0.0 | 0.0 | 0.00 | 0.00 | 0.00 | 21 | |
| 20260505221744 | 89 | 16 | 0.0 | 0.0 | 0.00 | 0.00 | 0.00 | 21 | |
| 20260505221513 | 91 | 292 | 0.0 | 6.0 | 0.00 | 0.00 | 0.00 | 23 | 1001.8 |
| 20260505221244 | 88 | 16 | 0.0 | 0.0 | 0.00 | 0.00 | 0.00 | 21 | |
| 20260505220744 | 87 | 16 | 0.0 | 0.0 | 0.00 | 0.00 | 0.00 | 21 | |
| 20260505220244 | 89 | 16 | 0.0 | 0.0 | 0.00 | 0.00 | 0.00 | 21 | |
| 20260505220012 | 91 | 244 | 2.0 | 10.0 | 0.00 | 0.00 | 0.00 | 22 | 1001.8 |
| 20260505215744 | 90 | 16 | 0.0 | 0.0 | 0.00 | 0.00 | 0.00 | 21 | |
| 20260505215244 | 88 | 16 | 0.0 | 0.0 | 0.00 | 0.00 | 0.00 | 21 | |
| 20260505214744 | 89 | 16 | 0.0 | 0.0 | 0.00 | 0.00 | 0.00 | 21 | |
| 20260505214511 | 92 | 319 | 0.0 | 10.0 | 0.00 | 0.00 | 0.00 | 22 | 1001.9 |
| 20260505214244 | 89 | 16 | 0.0 | 0.0 | 0.00 | 0.00 | 0.00 | 21 | |
| 20260505213744 | 89 | 16 | 0.0 | 0.0 | 0.00 | 0.00 | 0.00 | 22 | |
| 20260505213413 | 89 | 16 | 0.0 | 0.0 | 0.00 | 0.00 | 0.00 | 21 | |
| 20260505213244 | 89 | 16 | 0.0 | 0.0 | 0.00 | 0.00 | 0.00 | 21 | |
| 20260505213009 | 93 | 296 | 2.0 | 9.0 | 0.00 | 0.00 | 0.00 | 22 | 1001.8 |
| 20260505212744 | 89 | 16 | 0.0 | 0.0 | 0.00 | 0.00 | 0.00 | 22 | |
| 20260505212244 | 89 | 16 | 0.0 | 0.0 | 0.00 | 0.00 | 0.00 | 22 | |
| 20260505211744 | 90 | 16 | 0.0 | 0.0 | 0.00 | 0.00 | 0.00 | 21 | |
| 20260505211505 | 93 | 327 | 4.0 | 12.0 | 0.00 | 0.00 | 0.00 | 22 | 1002.0 |
| 20260505211244 | 90 | 16 | 0.0 | 0.0 | 0.00 | 0.00 | 0.00 | 22 | |
| 20260505210744 | 92 | 16 | 0.0 | 0.0 | 0.00 | 0.00 | 0.00 | 23 | |
| 20260505210244 | 91 | 16 | 0.0 | 0.0 | 0.00 | 0.00 | 0.00 | 24 | |
| 20260505210004 | 94 | 309 | 1.0 | 8.0 | 0.00 | 0.00 | 0.00 | 23 | 1002.1 |
| 20260505205744 | 90 | 16 | 0.0 | 0.0 | 0.00 | 0.00 | 0.00 | 24 | |
| 20260505205244 | 90 | 16 | 0.0 | 0.0 | 0.00 | 0.00 | 0.00 | 24 | |
| 20260505204744 | 90 | 16 | 0.0 | 0.0 | 0.00 | 0.00 | 0.00 | 26 | |
| 20260505204502 | 93 | 273 | 1.0 | 6.0 | 0.00 | 0.00 | 0.00 | 26 | 1002.3 |
| 20260505204244 | 89 | 16 | 0.0 | 0.0 | 0.00 | 0.00 | 0.00 | 26 | |
| 20260505203744 | 90 | 16 | 0.0 | 0.0 | 0.00 | 0.00 | 0.00 | 26 | |
| 20260505203244 | 90 | 16 | 0.0 | 0.0 | 0.00 | 0.00 | 0.00 | 27 | |
| 20260505203117 | 92 | 328 | 2.0 | 8.0 | 0.00 | 0.00 | 0.00 | 25 | 1002.4 |
| 20260505202744 | 91 | 16 | 0.0 | 0.0 | 0.00 | 0.00 | 0.00 | 27 | |
| 20260505202244 | 90 | 16 | 0.0 | 0.0 | 0.00 | 0.00 | 0.00 | 27 | |
| 20260505201744 | 89 | 16 | 0.0 | 0.0 | 0.00 | 0.00 | 0.00 | 28 | |
| 20260505201556 | 92 | 301 | 0.0 | 6.0 | 0.00 | 0.00 | 0.00 | 26 | 1002.4 |
| 20260505201244 | 89 | 16 | 0.0 | 0.0 | 0.00 | 0.00 | 0.00 | 29 | |
| 20260505200744 | 88 | 16 | 0.0 | 0.0 | 0.00 | 0.00 | 0.00 | 28 | |
| 20260505200244 | 88 | 16 | 0.0 | 0.0 | 0.00 | 0.00 | 0.00 | 29 | |
| 20260505200059 | 91 | 242 | 1.0 | 11.0 | 0.00 | 0.00 | 0.00 | 28 | 1002.6 |
| 20260505195744 | 89 | 16 | 0.0 | 0.0 | 0.00 | 0.00 | 0.00 | 29 | |
| 20260505195244 | 89 | 16 | 0.0 | 0.0 | 0.00 | 0.00 | 0.00 | 30 | |
| 20260505194744 | 90 | 16 | 0.0 | 0.0 | 0.00 | 0.00 | 0.00 | 31 | |
| 20260505194607 | 91 | 311 | 2.0 | 9.0 | 0.00 | 0.00 | 0.00 | 29 | 1002.8 |
| 20260505194244 | 89 | 16 | 0.0 | 0.0 | 0.00 | 0.00 | 0.00 | 31 | |
| 20260505193744 | 87 | 16 | 0.0 | 0.0 | 0.00 | 0.00 | 0.00 | 31 | |
| 20260505193309 | 88 | 16 | 0.0 | 0.0 | 0.00 | 0.00 | 0.00 | 33 | |
| 20260505193244 | 89 | 16 | 0.0 | 0.0 | 0.00 | 0.00 | 0.00 | 32 | |
| 20260505193052 | 91 | 316 | 1.0 | 5.0 | 0.00 | 0.00 | 0.00 | 30 | 1002.8 |
| 20260505192744 | 87 | 16 | 0.0 | 0.0 | 0.00 | 0.00 | 0.00 | 33 | |
| 20260505192244 | 88 | 16 | 0.0 | 0.0 | 0.00 | 0.00 | 0.00 | 33 | |
| 20260505191744 | 89 | 16 | 0.0 | 0.0 | 0.00 | 0.00 | 0.00 | 34 | |
| 20260505191551 | 91 | 300 | 1.0 | 6.0 | 0.00 | 0.00 | 0.00 | 30 | 1002.9 |
| 20260505191244 | 89 | 16 | 0.0 | 0.0 | 0.00 | 0.00 | 0.00 | 36 | |
| 20260505190744 | 87 | 16 | 0.0 | 0.0 | 0.00 | 0.00 | 0.00 | 36 | |
| 20260505190244 | 89 | 16 | 0.0 | 0.0 | 0.00 | 0.00 | 0.00 | 36 | |
| 20260505190048 | 90 | 201 | 1.0 | 9.0 | 0.00 | 0.00 | 0.00 | 33 | 1003.1 |
| 20260505185745 | 88 | 16 | 0.0 | 0.0 | 0.00 | 0.00 | 0.00 | 36 | |
| 20260505185245 | 86 | 16 | 0.0 | 0.0 | 0.00 | 0.00 | 0.00 | 38 | |
| 20260505184745 | 86 | 16 | 0.0 | 0.0 | 0.00 | 0.00 | 0.00 | 38 | |
| 20260505184547 | 89 | 341 | 0.0 | 8.0 | 0.00 | 0.00 | 0.00 | 35 | 1003.3 |
| 20260505184245 | 86 | 16 | 0.0 | 0.0 | 0.00 | 0.00 | 0.00 | 39 | |
| 20260505183745 | 86 | 16 | 0.0 | 0.0 | 0.00 | 0.00 | 0.00 | 41 | |
| 20260505183245 | 86 | 16 | 0.0 | 0.0 | 0.00 | 0.00 | 0.00 | 41 | |
| 20260505183056 | 90 | 265 | 1.0 | 7.0 | 0.00 | 0.00 | 0.00 | 35 | 1003.3 |
| 20260505182745 | 87 | 16 | 0.0 | 0.0 | 0.00 | 0.00 | 0.00 | 43 | |
| 20260505182245 | 85 | 16 | 0.0 | 0.0 | 0.00 | 0.00 | 0.00 | 44 | |
| 20260505181745 | 85 | 16 | 0.0 | 0.0 | 0.00 | 0.00 | 0.00 | 45 | |
| 20260505181540 | 88 | 341 | 0.0 | 5.0 | 0.00 | 0.00 | 0.00 | 40 | 1003.7 |
| 20260505181245 | 85 | 16 | 0.0 | 0.0 | 0.00 | 0.00 | 0.00 | 46 | |
| 20260505180745 | 85 | 16 | 0.0 | 0.0 | 0.00 | 0.00 | 0.00 | 48 | |
| 20260505180245 | 85 | 16 | 0.0 | 0.0 | 0.00 | 0.00 | 0.00 | 49 | |
| 20260505180038 | 86 | 194 | 2.0 | 7.0 | 0.00 | 0.00 | 0.00 | 47 | 1003.8 |
| 20260505175745 | 85 | 16 | 0.0 | 0.0 | 0.00 | 0.00 | 0.00 | 50 | |
| 20260505175245 | 83 | 16 | 0.0 | 0.0 | 0.00 | 0.00 | 0.00 | 51 | |
| 20260505174745 | 83 | 16 | 0.0 | 0.0 | 0.00 | 0.00 | 0.00 | 52 | |
| 20260505174532 | 85 | 216 | 1.0 | 7.0 | 0.00 | 0.00 | 0.00 | 52 | 1004.0 |
| 20260505174245 | 83 | 16 | 0.0 | 0.0 | 0.00 | 0.00 | 0.00 | 54 | |
| 20260505173745 | 82 | 16 | 0.0 | 0.0 | 0.00 | 0.00 | 0.00 | 54 | |
| 20260505173245 | 83 | 16 | 0.0 | 0.0 | 0.00 | 0.00 | 0.00 | 55 | |
| 20260505173040 | 83 | 241 | 1.0 | 7.0 | 0.00 | 0.00 | 0.00 | 56 | 1004.0 |
| 20260505172745 | 82 | 16 | 0.0 | 0.0 | 0.00 | 0.00 | 0.00 | 56 | |
| 20260505172245 | 19 | 16 | 0.0 | 0.0 | 0.00 | 0.00 | 0.00 | 57 | |
| 20260505171745 | 17 | 16 | 0.0 | 0.0 | 0.00 | 0.00 | 0.00 | 58 | |
| 20260505171526 | 82 | 213 | 4.0 | 8.0 | 0.00 | 0.00 | 0.00 | 58 | 1004.0 |
| 20260505171245 | 16 | 16 | 0.0 | 0.0 | 0.00 | 0.00 | 0.00 | 59 | |
| 20260505170745 | 16 | 16 | 0.0 | 0.0 | 0.00 | 0.00 | 0.00 | 59 | |
| 20260505170245 | 17 | 16 | 0.0 | 0.0 | 0.00 | 0.00 | 0.00 | 60 | |
| 20260505170027 | 81 | 206 | 1.0 | 8.0 | 0.00 | 0.00 | 0.00 | 62 | 1004.1 |
| 20260505165826 | 17 | 16 | 0.0 | 0.0 | 0.00 | 0.00 | 0.00 | 60 | |
| 20260505165745 | 17 | 16 | 0.0 | 0.0 | 0.00 | 0.00 | 0.00 | 60 | |
| 20260505165245 | 18 | 16 | 0.0 | 0.0 | 0.00 | 0.00 | 0.00 | 61 | |
| 20260505164745 | 19 | 16 | 0.0 | 2.0 | 0.00 | 0.00 | 0.00 | 62 | |
| 20260505164542 | 80 | 292 | 1.0 | 9.0 | 0.00 | 0.00 | 0.00 | 66 | 1004.1 |
| 20260505164245 | 19 | 330 | 0.0 | 4.0 | 0.00 | 0.00 | 0.00 | 63 | |
| 20260505163745 | 17 | 358 | 0.0 | 0.0 | 0.00 | 0.00 | 0.00 | 64 | |
| 20260505163245 | 17 | 358 | 0.0 | 0.0 | 0.00 | 0.00 | 0.00 | 65 | |
| 20260505163017 | 79 | 200 | 1.0 | 9.0 | 0.00 | 0.00 | 0.00 | 67 | 1004.1 |
| 20260505162745 | 17 | 358 | 0.0 | 2.0 | 0.00 | 0.00 | 0.00 | 65 | |
| 20260505162245 | 18 | 358 | 0.0 | 0.0 | 0.00 | 0.00 | 0.00 | 66 | |
| 20260505161745 | 17 | 358 | 0.0 | 0.0 | 0.00 | 0.00 | 0.00 | 67 | |
| 20260505161514 | 78 | 245 | 3.0 | 9.0 | 0.00 | 0.00 | 0.00 | 70 | 1004.0 |
| 20260505161245 | 15 | 5 | 0.0 | 4.0 | 0.00 | 0.00 | 0.00 | 68 | |
| 20260505160745 | 18 | 5 | 0.0 | 2.0 | 0.00 | 0.00 | 0.00 | 69 | |
| 20260505160245 | 24 | 358 | 0.0 | 6.0 | 0.00 | 0.00 | 0.00 | 69 | |
| 20260505153245 | 29 | 358 | 0.0 | 0.0 | 0.00 | 0.00 | 0.00 | 71 | |
| 20260505153010 | 76 | 201 | 1.0 | 7.0 | 0.00 | 0.00 | 0.00 | 75 | 1003.9 |
| 20260505152745 | 25 | 355 | 0.0 | 0.0 | 0.00 | 0.00 | 0.00 | 72 | |
| 20260505152245 | 23 | 355 | 0.0 | 0.0 | 0.00 | 0.00 | 0.00 | 72 | |
| 20260505151745 | 22 | 355 | 0.0 | 3.0 | 0.00 | 0.00 | 0.00 | 73 | |
| 20260505151504 | 75 | 194 | 2.0 | 9.0 | 0.00 | 0.00 | 0.00 | 76 | 1003.9 |
| 20260505151250 | 22 | 32 | 0.0 | 4.0 | 0.00 | 0.00 | 0.00 | 72 | |
| 20260505151245 | 22 | 32 | 0.0 | 4.0 | 0.00 | 0.00 | 0.00 | 72 | |
| 20260505150745 | 23 | 25 | 0.0 | 4.0 | 0.00 | 0.00 | 0.00 | 73 | |
| 20260505150318 | 19 | 25 | 0.0 | 8.0 | 0.00 | 0.00 | 0.00 | 75 | |
| 20260505150245 | 19 | 25 | 0.0 | 8.0 | 0.00 | 0.00 | 0.00 | 75 | |
| 20260505140245 | 67 | 345 | 0.0 | 0.0 | 0.00 | 0.00 | 0.00 | 80 | |
| 20260505140106 | 71 | 267 | 1.0 | 6.0 | 0.00 | 0.00 | 0.00 | 85 | 1003.9 |
| 20260505130246 | 67 | 345 | 0.0 | 0.0 | 0.00 | 0.00 | 0.00 | 83 | |
| 20260505124746 | 66 | 345 | 0.0 | 0.0 | 0.00 | 0.00 | 0.00 | 83 | |
| 20260505124553 | 68 | 215 | 0.0 | 3.0 | 0.00 | 0.00 | 0.00 | 88 | 1003.4 |
| 20260505124246 | 65 | 345 | 0.0 | 0.0 | 0.00 | 0.00 | 0.00 | 82 | |
| 20260505123746 | 65 | 345 | 0.0 | 0.0 | 0.00 | 0.00 | 0.00 | 82 | |
| 20260505123246 | 65 | 345 | 0.0 | 0.0 | 0.00 | 0.00 | 0.00 | 82 | |
| 20260505123100 | 67 | 202 | 0.0 | 2.0 | 0.00 | 0.00 | 0.00 | 88 | 1003.3 |
| 20260505122746 | 65 | 345 | 0.0 | 0.0 | 0.00 | 0.00 | 0.00 | 82 | |
| 20260505122246 | 66 | 345 | 0.0 | 0.0 | 0.00 | 0.00 | 0.00 | 82 | |
| 20260505121746 | 66 | 345 | 0.0 | 0.0 | 0.00 | 0.00 | 0.00 | 82 | |
| 20260505121552 | 67 | 196 | 0.0 | 4.0 | 0.00 | 0.00 | 0.00 | 88 | 1003.1 |
| 20260505121246 | 65 | 345 | 0.0 | 0.0 | 0.00 | 0.00 | 0.00 | 82 | |
| 20260505120746 | 65 | 345 | 0.0 | 0.0 | 0.00 | 0.00 | 0.00 | 82 | |
| 20260505120246 | 65 | 345 | 0.0 | 0.0 | 0.00 | 0.00 | 0.00 | 82 | |
| 20260505120049 | 67 | 194 | 1.0 | 4.0 | 0.00 | 0.00 | 0.00 | 87 | 1002.9 |
| 20260505115746 | 65 | 345 | 0.0 | 0.0 | 0.00 | 0.00 | 0.00 | 81 | |
| 20260505115246 | 65 | 345 | 0.0 | 0.0 | 0.00 | 0.00 | 0.00 | 81 | |
| 20260505114746 | 65 | 345 | 0.0 | 0.0 | 0.00 | 0.00 | 0.00 | 81 | |
| 20260505114549 | 67 | 165 | 0.0 | 4.0 | 0.00 | 0.00 | 0.00 | 87 | 1002.7 |
| 20260505114246 | 66 | 345 | 0.0 | 0.0 | 0.00 | 0.00 | 0.00 | 81 | |
| 20260505113746 | 66 | 345 | 0.0 | 0.0 | 0.00 | 0.00 | 0.00 | 81 | |
| 20260505113246 | 67 | 345 | 0.0 | 0.0 | 0.00 | 0.00 | 0.00 | 81 | |
| 20260505113050 | 67 | 195 | 1.0 | 6.0 | 0.00 | 0.00 | 0.00 | 87 | 1002.6 |
| 20260505112817 | 65 | 345 | 0.0 | 0.0 | 0.00 | 0.00 | 0.00 | 81 | |
| 20260505112746 | 65 | 345 | 0.0 | 0.0 | 0.00 | 0.00 | 0.00 | 81 | |
| 20260505112246 | 65 | 345 | 0.0 | 0.0 | 0.00 | 0.00 | 0.00 | 81 | |
| 20260505111746 | 65 | 345 | 0.0 | 0.0 | 0.00 | 0.00 | 0.00 | 81 | |
| 20260505111554 | 67 | 186 | 1.0 | 7.0 | 0.00 | 0.00 | 0.00 | 86 | 1002.5 |
| 20260505111246 | 66 | 345 | 0.0 | 0.0 | 0.00 | 0.00 | 0.00 | 80 | |
| 20260505110746 | 66 | 345 | 0.0 | 0.0 | 0.00 | 0.00 | 0.00 | 80 | |
| 20260505110246 | 65 | 345 | 0.0 | 0.0 | 0.00 | 0.00 | 0.00 | 80 | |
| 20260505101746 | 20 | 345 | 0.0 | 0.0 | 0.00 | 0.00 | 0.00 | 78 | |
| 20260505101539 | 68 | 186 | 4.0 | 10.0 | 0.00 | 0.00 | 0.00 | 83 | 1002.2 |
| 20260505101246 | 20 | 345 | 0.0 | 0.0 | 0.00 | 0.00 | 0.00 | 78 | |
| 20260505100746 | 19 | 345 | 0.0 | 0.0 | 0.00 | 0.00 | 0.00 | 77 | |
| 20260505100246 | 20 | 345 | 0.0 | 0.0 | 0.00 | 0.00 | 0.00 | 77 | |
| 20260505100047 | 68 | 213 | 4.0 | 12.0 | 0.00 | 0.00 | 0.00 | 82 | 1002.1 |
| 20260505095746 | 19 | 345 | 0.0 | 0.0 | 0.00 | 0.00 | 0.00 | 77 | |
| 20260505095246 | 19 | 345 | 0.0 | 0.0 | 0.00 | 0.00 | 0.00 | 77 | |
| 20260505094746 | 19 | 345 | 0.0 | 0.0 | 0.00 | 0.00 | 0.00 | 77 | |
| 20260505094535 | 69 | 173 | 3.0 | 10.0 | 0.00 | 0.00 | 0.00 | 81 | 1002.3 |
| 20260505094246 | 20 | 345 | 0.0 | 0.0 | 0.00 | 0.00 | 0.00 | 76 | |
| 20260505093746 | 19 | 345 | 0.0 | 0.0 | 0.00 | 0.00 | 0.00 | 76 | |
| 20260505093246 | 18 | 345 | 0.0 | 0.0 | 0.00 | 0.00 | 0.00 | 76 | |
| 20260505093034 | 69 | 215 | 3.0 | 15.0 | 0.00 | 0.00 | 0.00 | 81 | 1002.2 |
| 20260505092746 | 18 | 345 | 0.0 | 0.0 | 0.00 | 0.00 | 0.00 | 76 | |
| 20260505092246 | 19 | 345 | 0.0 | 0.0 | 0.00 | 0.00 | 0.00 | 76 | |
| 20260505091746 | 18 | 345 | 0.0 | 0.0 | 0.00 | 0.00 | 0.00 | 76 | |
| 20260505091547 | 69 | 202 | 3.0 | 12.0 | 0.00 | 0.00 | 0.00 | 80 | 1002.0 |